RH
77 81 78 86 91 92 91 90 88 81 72 62 53 53 40 35 37 46 57 57 63 64 74 73 57 61 50 49 48 45 46 44 40 36 34 35 34 33 35 32 32 37 43 46 45 47 47
91 88 90 95 96 96 95 94 93 83 77 68 58 46 38 36 39 45 55 56 61 63 59 62 62 49 51 50 46 46 46 37 36 34 34 34 35 38 36 33 34 33 36 38 35 39 46
93 97 95 97 98 96 97 96 95 93 89 69 61 49 38 40 43 37 45 64 62 60 60 61 59 47 47 47 47 43 33 31 35 36 35 40 39 39 45 47 47 48 47 45 34 31 33
51 50 64 74 88 97 98 98 95 94 91 73 64 54 39 37 49 64 48 59 62 65 76 59 48 47 52 48 45 35 33 35 37 36 36 39 45 48 51 53 53 58 55 57 39 49 40
56 60 71 82 95 98 98 98 98 88 86 83 72 58 36 27 48 57 78 67 72 67 55 56 55 56 51 46 36 34 37 40 46 44 46 49 57 60 62 68 68 64 65 63 52 59 56
74 78 76 82 90 90 96 98 95 87 92 87 74 55 40 34 27 40 52 73 72 68 63 60 55 50 50 48 40 44 46 49 53 56 57 69 71 79 77 79 72 71 73 89 75 61 66
93 87 84 91 93 88 92 97 89 87 93 86 71 55 46 52 35 36 47 74 84 77 69 56 47 52 46 45 44 52 58 62 67 70 76 78 90 84 78 75 74 78 83 74 65 67 70
95 86 87 86 90 91 95 93 97 92 95 86 68 62 65 95 75 57 74 87 60 61 59 61 50 49 51 51 56 63 66 73 76 84 91 93 89 77 73 78 75 76 78 76 67 63 60
95 86 80 86 92 93 88 85 88 95 92 69 52 56 73 92 93 83 84 88 58 62 59 54 46 55 56 62 66 72 75 79 82 85 88 91 79 78 79 75 68 74 71 70 80 82 67
95 87 69 78 88 90 84 90 90 86 74 59 49 44 52 59 80 97 97 82 68 61 63 47 55 60 64 67 75 77 79 77 81 84 83 80 73 76 72 67 71 80 78 74 81 95 94
97 86 63 65 77 85 80 91 82 71 59 55 49 62 54 55 75 87 94 82 56 60 64 48 60 59 72 75 78 79 72 74 77 75 76 76 76 68 69 70 75 72 86 86 81 88 86
97 86 62 54 59 64 70 74 70 67 56 51 53 78 62 80 85 83 82 81 65 55 63 57 62 70 73 76 78 82 81 78 76 75 74 74 72 74 70 76 84 84 93 95 97 98 98
98 90 60 55 60 65 67 67 70 60 49 54 68 68 70 71 84 86 79 54 55 63 47 61 66 68 70 73 76 79 86 85 76 74 73 74 75 78 82 87 88 92 98 98 96 96 98
80 79 63 55 69 68 61 59 58 52 51 56 50 51 67 87 91 90 73 55 58 47 59 60 65 69 74 73 73 76 85 81 78 77 86 86 87 84 86 95 98 98 98 98 97 97 98
59 54 51 47 53 56 53 47 45 42 39 31 44 60 71 81 94 64 59 61 62 58 55 60 63 67 71 68 69 71 75 76 77 78 89 94 85 79 87 88 91 90 96 88 98 78 90
40 38 43 38 42 37 35 31 30 30 28 28 44 70 88 89 80 66 59 55 53 53 56 53 56 58 62 63 67 68 74 71 74 76 78 72 83 80 82 85 84 85 77 86 94 92 95
33 27 31 31 33 33 30 30 29 28 33 46 62 84 90 87 61 55 58 53 51 50 47 53 51 52 53 58 63 64 68 71 73 78 77 69 79 77 77 74 76 71 68 65 67 63 62
44 39 36 38 38 39 42 39 29 30 38 47 70 85 80 58 52 46 50 49 49 46 45 47 48 49 52 53 55 59 65 69 72 76 70 66 70 77 69 63 62 62 57 58 70 66 62
51 49 43 44 50 55 57 60 62 65 70 70 75 73 66 52 49 42 42 42 46 42 43 46 44 44 44 46 55 52 55 58 67 68 63 61 66 76 66 67 58 55 52 54 54 63 57
48 52 49 44 46 54 58 62 66 66 65 61 61 57 48 47 41 39 40 39 37 36 38 40 39 41 38 41 41 47 50 50 51 54 59 63 65 71 77 66 63 59 52 51 56 61 58
47 47 51 52 50 48 53 56 63 62 56 54 48 46 43 42 35 36 38 35 33 35 31 32 35 36 35 37 37 40 40 45 44 48 51 53 59 59 53 53 53 50 50 50 50 48 55
47 48 48 51 53 54 56 58 61 61 59 58 51 46 39 36 30 32 36 34 30 31 35 30 34 33 32 38 38 40 39 39 42 41 44 47 53 51 47 42 41 42 42 44 45 46 46
43 47 54 56 55 59 59 59 61 61 56 49 41 37 35 32 31 32 33 32 29 31 31 31 32 37 36 37 34 32 33 35 36 36 36 36 39 45 47 35 34 42 36 36 37 39 41
39 41 45 49 51 55 57 60 60 60 53 47 36 34 30 31 30 30 32 34 31 30 33 29 30 32 34 32 31 30 29 31 31 31 31 31 32 34 42 28 39 32 28 28 30 31 33
31 37 44 48 48 51 54 51 51 47 44 36 31 29 28 30 27 28 30 33 34 30 31 30 31 34 34 32 34 32 34 31 27 26 28 29 29 32 39 29 25 26 25 27 28 32 29
21 29 40 45 47 48 53 54 50 45 39 34 30 29 29 27 27 27 28 32 33 33 32 31 31 33 34 33 33 33 36 28 30 29 27 27 27 33 33 37 30 27 26 26 24 33 29
14 23 32 33 39 45 50 54 56 47 40 34 34 33 31 29 28 28 30 31 32 31 35 33 33 34 34 36 40 38 33 29 35 31 32 33 33 37 39 39 30 28 25 25 32 33 24
16 21 26 33 38 46 48 51 55 57 46 37 32 33 34 32 28 28 30 32 32 32 34 34 34 36 37 38 38 37 34 35 32 29 28 30 33 37 34 35 37 26 27 27 28 24 23
21 22 22 31 37 44 52 58 55 58 53 43 37 31 34 36 33 30 31 32 32 34 36 33 37 36 39 40 38 35 38 36 33 32 32 34 29 34 30 33 27 23 25 24 24 24 25